This is the latest recevied weather packets stored in our database for station/object NY3Q. If no packets are shown the sender has not sent any weather packets the latest 10 day(s).
| Time | Temp. | Humidity | Pressure | Rain* | Wind** | Luminosity | Snow |
|---|---|---|---|---|---|---|---|
| 1777639268 | 21.67° C | 94% | 1011.7 hPa | 0 mm | - | 135 W/m² | - |
| 1777638964 | 21.67° C | 94% | 1011.8 hPa | 0 mm | - | 85 W/m² | - |
| 1777638659 | 21.11° C | 95% | 1011.8 hPa | 0 mm | - | 137 W/m² | - |
| 1777638356 | 20.56° C | 95% | 1012 hPa | 0 mm | - | 80 W/m² | - |
| 1777638052 | 20.56° C | 95% | 1011.8 hPa | 0 mm | - | 80 W/m² | - |
| 1777637749 | 20° C | 96% | 1011.7 hPa | 0 mm | - | 71 W/m² | - |
| 1777637445 | 20° C | 95% | 1011.5 hPa | 0 mm | - | 70 W/m² | - |
| 1777636839 | 20° C | 96% | 1011.5 hPa | 0 mm | - | 55 W/m² | - |
| 1777636232 | 19.44° C | 96% | 1011.7 hPa | 0 mm | - | 53 W/m² | - |
| 1777635627 | 19.44° C | 96% | 1011.3 hPa | 0 mm | - | 41 W/m² | - |
| 1777635325 | 19.44° C | 96% | 1011.5 hPa | 0 mm | - | 31 W/m² | - |
| 1777635021 | 18.89° C | 96% | 1011.4 hPa | 0 mm | - | 29 W/m² | - |
| 1777634717 | 18.89° C | 96% | 1011.2 hPa | 0 mm | - | 20 W/m² | - |
| 1777634415 | 18.89° C | 96% | 1011.3 hPa | 0 mm | - | 13 W/m² | - |
| 1777634112 | 18.89° C | 96% | 1011.2 hPa | 0 mm | - | 7 W/m² | - |
| 1777633808 | 18.89° C | 96% | 1010.8 hPa | 0 mm | - | 6 W/m² | - |
| 1777633506 | 18.89° C | 96% | 1011.2 hPa | 0 mm | - | 5 W/m² | - |
| 1777633204 | 18.89° C | 96% | 1010.8 hPa | 0 mm | - | 6 W/m² | - |
| 1777632900 | 18.89° C | 96% | 1011.1 hPa | 0 mm | - | 3 W/m² | - |
| 1777632596 | 18.89° C | 96% | 1011.2 hPa | 0 mm | - | 1 W/m² | - |
| 1777631990 | 18.89° C | 96% | 1011 hPa | 0 mm | - | 1 W/m² | - |
| 1777631689 | 18.89° C | 96% | 1011 hPa | 0 mm | - | 0 W/m² | - |
| 1777631386 | 18.89° C | 96% | 1010.9 hPa | 0 mm | - | 0 W/m² | - |
| 1777631083 | 18.89° C | 96% | 1011 hPa | 0 mm | - | 0 W/m² | - |
| 1777630779 | 18.89° C | 96% | 1010.7 hPa | 0 mm | - | 0 W/m² | - |
* Rain latest hour (hover to see other rain measurements)
** Current wind speed in m/s (hover to see current wind gust speed)